Starlink 31219

operational
NORAD ID: 58866 Int'l Des: 2024-019 Owner: SPXS Country: US Constellation: starlink
LEOCIRCULAR

关于 Starlink 31219

正在加载描述...

实时位置

正在加载3D地球...

即将过境

高度历史

Altitude vs Time

uPlot chart will show altitude changes over time

两行轨道根数

1 58866U 24019P 25354.03399641 .00000935 00000-0 43502-4 0 9998
2 58866 43.0026 338.4737 0001779 282.9858 77.0795 15.27576489106883
Epoch: Dec 20, 2025 • Age: 23 hours

当前状态

高度 485.4 km
速度 7.63 km/s
星下点 33.44°N, 28.58°E
发射日期 Jan 29, 2024
运行时间 1.8 years
类型 internet

技术详情

分类 Payload
质量 730.00 kg
干质量 700.00 kg
总质量 730.00 kg
长度 0.30 m
直径 4.10 m
跨度 29.00 m
形状 Box + pan
制造商 SPXS
平台类型 Starlink V2M
阶段状态 In Orbit
所有者/国家 SPXS/US

大型星座

Loading constellations...